sat.trackr.live / text

‹ back to catalog

ONEWEB-0639

NORAD 55803 · 2023-029H

PAYLOAD ACTIVE UNKNOWN

§ Identity

Operator
Country
UK
Launch date
2023-03-09
Launch site
AFETR
Launch vehicle
Mass (kg)
RCS (m²)

Purposes: comms

External: N2YO · Heavens-Above · Gunter

§ Orbital elements

Epoch: 2026-09-19T10:10:18.831648Z

Period
109.11 min
Inclination
87.9104°
Eccentricity
0.0002046
Mean motion
13.19726159 rev/d
Perigee alt
1,184.2 km
Apogee alt
1,187.3 km
Semi-major
7,563.9 km
B*
1.3266e-4
RAAN
286.1983°
Arg perigee
57.5578°
Mean anomaly
302.5753°
Rev number
17,133

§ Raw data

ONEWEB-06391 55803U 23029H   26262.42382907  .00000066  00000+0  13266-3 0  99922 55803  87.9104 286.1983 0002046  57.5578 302.5753 13.19726159171332

JSON: /api/v1/satellites/55803 · /tle

For live sub-satellite position, see the globe view (requires WebGL).

§ Visibility from observer

Set your observer location to see the next 7 days of passes ≥ 10°. The values pass through the URL so the page stays shareable.

No JS? Fill the form by hand. The geolocation button needs JavaScript.

§ Radio — SatNOGS DB

ModeDescriptionDownlinkUplink
FM S-band telemetry 2.257 GHz

1 transmitter · refreshed weekly from db.satnogs.org